DL1MMS-10 Weather Reports


Display with metric or nautical units.
time (UTC)temp
F
wind
direction
speed
MPH
gust
MPH
rain 1hr
in
rain 24hr
in
rain mn
in
humidity
%
barometer
mb
20260507120037 64 0 0.0 0.0 0.00 0.00 0.00 49 1014.5
20260507115536 64 0 0.0 0.0 0.00 0.00 0.00 48 1014.6
20260507115036 65 0 0.0 0.0 0.00 0.00 0.00 48 1014.7
20260507114536 66 0 0.0 0.0 0.00 0.00 0.00 46 1014.6
20260507114035 68 0 0.0 0.0 0.00 0.00 0.00 46 1014.7
20260507113536 67 0 0.0 0.0 0.00 0.00 0.00 49 1014.6
20260507113035 66 0 0.0 0.0 0.00 0.00 0.00 49 1014.6
20260507112535 65 0 0.0 0.0 0.00 0.00 0.00 49 1014.6
20260507112034 67 0 0.0 0.0 0.00 0.00 0.00 48 1014.8
20260507111534 68 0 0.0 0.0 0.00 0.00 0.00 48 1014.8
20260507111034 68 0 0.0 0.0 0.00 0.00 0.00 49 1014.7
20260507110533 66 0 0.0 0.0 0.00 0.00 0.00 51 1014.7
20260507110033 64 0 0.0 0.0 0.00 0.00 0.00 53 1014.8
20260507105533 64 0 0.0 0.0 0.00 0.00 0.00 55 1014.9
20260507105033 62 0 0.0 0.0 0.00 0.00 0.00 54 1015.0
20260507104532 64 0 0.0 0.0 0.00 0.00 0.00 54 1015.0
20260507104032 65 0 0.0 0.0 0.00 0.00 0.00 54 1014.9
20260507103532 63 0 0.0 0.0 0.00 0.00 0.00 58 1015.0
20260507103031 60 0 0.0 0.0 0.00 0.00 0.00 59 1015.0
20260507102531 59 0 0.0 0.0 0.00 0.00 0.00 61 1015.1
20260507102031 59 0 0.0 0.0 0.00 0.00 0.00 62 1015.2
20260507101531 58 0 0.0 0.0 0.00 0.00 0.00 62 1015.1
20260507101030 58 0 0.0 0.0 0.00 0.00 0.00 62 1015.0
20260507100530 58 0 0.0 0.0 0.00 0.00 0.00 63 1015.0
20260507100030 57 0 0.0 0.0 0.00 0.00 0.00 64 1015.0
20260507095529 57 0 0.0 0.0 0.00 0.00 0.00 64 1015.1
20260507095029 57 0 0.0 0.0 0.00 0.00 0.00 63 1015.1
20260507094529 57 0 0.0 0.0 0.00 0.00 0.00 65 1015.0
20260507094029 57 0 0.0 0.0 0.00 0.00 0.00 66 1015.0
20260507093528 57 0 0.0 0.0 0.00 0.00 0.00 65 1015.0
20260507093028 57 0 0.0 0.0 0.00 0.00 0.00 67 1015.0
20260507092528 56 0 0.0 0.0 0.00 0.00 0.00 69 1015.0
20260507092027 55 0 0.0 0.0 0.00 0.00 0.00 69 1014.8
20260507091527 55 0 0.0 0.0 0.00 0.00 0.00 69 1014.8
20260507091027 55 0 0.0 0.0 0.00 0.00 0.00 71 1014.8
20260507090527 54 0 0.0 0.0 0.00 0.00 0.00 74 1014.8
20260507090026 53 0 0.0 0.0 0.00 0.00 0.00 74 1014.9
20260507085526 53 0 0.0 0.0 0.00 0.00 0.00 76 1014.8
20260507085026 52 0 0.0 0.0 0.00 0.00 0.00 76 1014.9
20260507084526 52 0 0.0 0.0 0.00 0.00 0.00 77 1014.8
20260507084025 51 0 0.0 0.0 0.00 0.00 0.00 79 1014.8
20260507083525 51 0 0.0 0.0 0.00 0.00 0.00 79 1014.9
20260507083025 50 0 0.0 0.0 0.00 0.00 0.00 79 1014.8
20260507082524 50 0 0.0 0.0 0.00 0.00 0.00 79 1014.7
20260507082024 50 0 0.0 0.0 0.00 0.00 0.00 79 1014.7
20260507081524 49 0 0.0 0.0 0.00 0.00 0.00 79 1014.7
20260507081024 49 0 0.0 0.0 0.00 0.00 0.00 78 1014.6
20260507080523 50 0 0.0 0.0 0.00 0.00 0.00 78 1014.5
20260507080023 50 0 0.0 0.0 0.00 0.00 0.00 78 1014.5
20260507075523 49 0 0.0 0.0 0.00 0.00 0.00 79 1014.6
20260507075022 49 0 0.0 0.0 0.00 0.00 0.00 79 1014.6
20260507074522 49 0 0.0 0.0 0.00 0.00 0.00 79 1014.4
20260507074022 49 0 0.0 0.0 0.00 0.00 0.00 79 1014.3
20260507073522 49 0 0.0 0.0 0.00 0.00 0.00 79 1014.3
20260507073021 49 0 0.0 0.0 0.00 0.00 0.00 79 1014.0
20260507072521 49 0 0.0 0.0 0.00 0.00 0.00 80 1014.1
20260507072021 49 0 0.0 0.0 0.00 0.00 0.00 80 1014.0
20260507071520 49 0 0.0 0.0 0.00 0.00 0.00 79 1014.0
20260507071020 49 0 0.0 0.0 0.00 0.00 0.00 78 1014.0
20260507070520 50 0 0.0 0.0 0.00 0.00 0.00 78 1014.0
20260507070020 50 0 0.0 0.0 0.00 0.00 0.00 77 1013.9
20260507065519 50 0 0.0 0.0 0.00 0.00 0.00 78 1013.9
20260507065019 50 0 0.0 0.0 0.00 0.00 0.00 78 1013.7
20260507064519 50 0 0.0 0.0 0.00 0.00 0.00 78 1013.8
20260507064018 50 0 0.0 0.0 0.00 0.00 0.00 78 1013.8
20260507063518 50 0 0.0 0.0 0.00 0.00 0.00 77 1013.9
20260507063018 50 0 0.0 0.0 0.00 0.00 0.00 76 1013.9
20260507062518 50 0 0.0 0.0 0.00 0.00 0.00 76 1013.6
20260507062017 49 0 0.0 0.0 0.00 0.00 0.00 76 1013.6
20260507061517 49 0 0.0 0.0 0.00 0.00 0.00 76 1013.6
20260507061017 49 0 0.0 0.0 0.00 0.00 0.00 76 1013.4
20260507060516 49 0 0.0 0.0 0.00 0.00 0.00 76 1013.5
20260507060016 49 0 0.0 0.0 0.00 0.00 0.00 76 1013.4
20260507055517 49 0 0.0 0.0 0.00 0.00 0.00 76 1013.3
20260507055016 49 0 0.0 0.0 0.00 0.00 0.00 76 1013.3
20260507054515 49 0 0.0 0.0 0.00 0.00 0.00 77 1013.3
20260507054015 49 0 0.0 0.0 0.00 0.00 0.00 77 1013.3
20260507053515 49 0 0.0 0.0 0.00 0.00 0.00 77 1013.3
20260507053014 49 0 0.0 0.0 0.00 0.00 0.00 77 1013.2
20260507052514 48 0 0.0 0.0 0.00 0.00 0.00 78 1013.1
20260507052014 48 0 0.0 0.0 0.00 0.00 0.00 78 1013.1
20260507051514 48 0 0.0 0.0 0.00 0.00 0.00 78 1013.0
20260507051013 48 0 0.0 0.0 0.00 0.00 0.00 78 1012.9
20260507050513 48 0 0.0 0.0 0.00 0.00 0.00 78 1012.9
20260507050013 48 0 0.0 0.0 0.00 0.00 0.00 78 1012.9
20260507045512 48 0 0.0 0.0 0.00 0.00 0.00 78 1012.8
20260507045012 48 0 0.0 0.0 0.00 0.00 0.00 78 1013.0
20260507044512 48 0 0.0 0.0 0.00 0.00 0.00 78 1013.0
20260507044012 48 0 0.0 0.0 0.00 0.00 0.00 79 1013.0
20260507043511 47 0 0.0 0.0 0.00 0.00 0.00 79 1013.0
20260507043011 47 0 0.0 0.0 0.00 0.00 0.00 79 1013.0
20260507042511 47 0 0.0 0.0 0.00 0.00 0.00 79 1012.7
20260507042010 47 0 0.0 0.0 0.00 0.00 0.00 79 1012.8
20260507041510 47 0 0.0 0.0 0.00 0.00 0.00 79 1012.6
20260507041010 47 0 0.0 0.0 0.00 0.00 0.00 80 1012.6
20260507040510 47 0 0.0 0.0 0.00 0.00 0.00 80 1012.6
20260507040009 47 0 0.0 0.0 0.00 0.00 0.00 80 1012.5
20260507035509 47 0 0.0 0.0 0.00 0.00 0.00 80 1012.5
20260507035009 47 0 0.0 0.0 0.00 0.00 0.00 81 1012.4
20260507034509 47 0 0.0 0.0 0.00 0.00 0.00 81 1012.4
20260507034008 47 0 0.0 0.0 0.00 0.00 0.00 81 1012.3
20260507033508 47 0 0.0 0.0 0.00 0.00 0.00 81 1012.2
20260507033008 47 0 0.0 0.0 0.00 0.00 0.00 81 1012.2
20260507032507 47 0 0.0 0.0 0.00 0.00 0.00 81 1012.2
20260507032007 47 0 0.0 0.0 0.00 0.00 0.00 81 1012.2
20260507031507 47 0 0.0 0.0 0.00 0.00 0.00 82 1012.2
20260507031007 47 0 0.0 0.0 0.00 0.00 0.00 82 1012.2
20260507030506 47 0 0.0 0.0 0.00 0.00 0.00 82 1012.2
20260507030006 46 0 0.0 0.0 0.00 0.00 0.00 83 1012.1
20260507025506 46 0 0.0 0.0 0.00 0.00 0.00 83 1012.1
20260507025005 46 0 0.0 0.0 0.00 0.00 0.00 83 1012.0
20260507024505 46 0 0.0 0.0 0.00 0.00 0.00 83 1012.0
20260507024005 46 0 0.0 0.0 0.00 0.00 0.00 83 1012.0
20260507023505 46 0 0.0 0.0 0.00 0.00 0.00 83 1012.0
20260507023004 46 0 0.0 0.0 0.00 0.00 0.00 83 1012.0
20260507022504 46 0 0.0 0.0 0.00 0.00 0.00 83 1012.1
20260507022004 46 0 0.0 0.0 0.00 0.00 0.00 83 1012.0
20260507021503 46 0 0.0 0.0 0.00 0.00 0.00 82 1012.1
20260507021003 46 0 0.0 0.0 0.00 0.00 0.00 82 1012.0
20260507020503 46 0 0.0 0.0 0.00 0.00 0.00 82 1012.0
20260507020003 46 0 0.0 0.0 0.00 0.00 0.00 82 1011.9
20260507015502 46 0 0.0 0.0 0.00 0.00 0.00 82 1011.9
20260507015002 46 0 0.0 0.0 0.00 0.00 0.00 82 1011.9
20260507014502 46 0 0.0 0.0 0.00 0.00 0.00 82 1011.9
20260507014001 46 0 0.0 0.0 0.00 0.00 0.00 82 1011.9
20260507013501 46 0 0.0 0.0 0.00 0.00 0.00 82 1011.9
20260507013001 46 0 0.0 0.0 0.00 0.00 0.00 81 1011.9
20260507012501 46 0 0.0 0.0 0.00 0.00 0.00 81 1011.8
20260507012000 46 0 0.0 0.0 0.00 0.00 0.00 81 1011.8
20260507011500 46 0 0.0 0.0 0.00 0.00 0.00 81 1011.7
20260507011000 47 0 0.0 0.0 0.00 0.00 0.00 81 1011.7
20260507010459 47 0 0.0 0.0 0.00 0.00 0.00 80 1011.6
20260507005959 47 0 0.0 0.0 0.00 0.00 0.00 80 1011.6
20260507005459 47 0 0.0 0.0 0.00 0.00 0.00 80 1011.6
20260507004959 47 0 0.0 0.0 0.00 0.00 0.00 80 1011.7
20260507004458 47 0 0.0 0.0 0.00 0.00 0.00 80 1011.9
20260507003958 47 0 0.0 0.0 0.00 0.00 0.00 80 1012.0
20260507003458 47 0 0.0 0.0 0.00 0.00 0.00 80 1012.0
20260507002957 47 0 0.0 0.0 0.00 0.00 0.00 80 1011.9
20260507002457 47 0 0.0 0.0 0.00 0.00 0.00 80 1011.9
20260507001957 47 0 0.0 0.0 0.00 0.00 0.00 80 1011.9
20260507001457 47 0 0.0 0.0 0.00 0.00 0.00 80 1012.0
20260507000956 47 0 0.0 0.0 0.00 0.00 0.00 80 1012.0
20260507000456 47 0 0.0 0.0 0.00 0.00 0.00 80 1012.0
20260506235956 47 0 0.0 0.0 0.00 0.00 0.00 80 1012.0
20260506235455 47 0 0.0 0.0 0.00 0.00 0.00 80 1012.2
20260506234956 47 0 0.0 0.0 0.00 0.00 0.00 80 1012.1
20260506234455 48 0 0.0 0.0 0.00 0.00 0.00 80 1012.0
20260506233955 48 0 0.0 0.0 0.00 0.00 0.00 80 1011.9
20260506233454 48 0 0.0 0.0 0.00 0.00 0.00 80 1011.9
20260506232954 48 0 0.0 0.0 0.00 0.00 0.00 80 1011.9
20260506232454 48 0 0.0 0.0 0.00 0.00 0.00 80 1011.9
20260506231954 48 0 0.0 0.0 0.00 0.00 0.00 80 1012.0
20260506231453 48 0 0.0 0.0 0.00 0.00 0.00 80 1012.0
20260506230953 48 0 0.0 0.0 0.00 0.00 0.00 80 1011.9
20260506230453 48 0 0.0 0.0 0.00 0.00 0.00 80 1011.9
20260506225952 48 0 0.0 0.0 0.00 0.00 0.00 80 1011.9
20260506225452 48 0 0.0 0.0 0.00 0.00 0.00 80 1011.8
20260506224952 48 0 0.0 0.0 0.00 0.00 0.00 80 1011.8
20260506224452 47 0 0.0 0.0 0.00 0.00 0.00 80 1011.8
20260506223951 47 0 0.0 0.0 0.00 0.00 0.00 80 1011.6
20260506223451 47 0 0.0 0.0 0.00 0.00 0.00 80 1011.6
20260506222951 48 0 0.0 0.0 0.00 0.00 0.00 80 1011.5
20260506222450 48 0 0.0 0.0 0.00 0.00 0.00 80 1011.5
20260506221950 48 0 0.0 0.0 0.00 0.00 0.00 80 1011.5
20260506221450 48 0 0.0 0.0 0.00 0.00 0.00 80 1011.5
20260506220950 48 0 0.0 0.0 0.00 0.00 0.00 80 1011.6
20260506220449 47 0 0.0 0.0 0.00 0.00 0.00 80 1011.5
20260506215949 47 0 0.0 0.0 0.00 0.00 0.00 81 1011.5
20260506215449 47 0 0.0 0.0 0.00 0.00 0.00 81 1011.5
20260506214948 47 0 0.0 0.0 0.00 0.00 0.00 81 1011.5
20260506214448 47 0 0.0 0.0 0.00 0.00 0.00 81 1011.4
20260506213948 47 0 0.0 0.0 0.00 0.00 0.00 81 1011.4
20260506213448 47 0 0.0 0.0 0.00 0.00 0.00 81 1011.4
20260506212947 48 0 0.0 0.0 0.00 0.00 0.00 81 1011.3
20260506212447 48 0 0.0 0.0 0.00 0.00 0.00 81 1011.3
20260506211947 48 0 0.0 0.0 0.00 0.00 0.00 81 1011.3
20260506211446 48 0 0.0 0.0 0.00 0.00 0.00 81 1011.3
20260506210946 48 0 0.0 0.0 0.00 0.00 0.00 81 1011.3
20260506210446 47 0 0.0 0.0 0.00 0.00 0.00 81 1011.3
20260506205946 47 0 0.0 0.0 0.00 0.00 0.00 81 1011.3
20260506205445 47 0 0.0 0.0 0.00 0.00 0.00 81 1011.3
20260506204945 47 0 0.0 0.0 0.00 0.00 0.00 81 1011.3
20260506204445 48 0 0.0 0.0 0.00 0.00 0.00 81 1011.2
20260506203944 48 0 0.0 0.0 0.00 0.00 0.00 81 1011.2
20260506203444 48 0 0.0 0.0 0.00 0.00 0.00 81 1011.5
20260506202944 47 0 0.0 0.0 0.00 0.00 0.00 81 1011.4
20260506202444 47 0 0.0 0.0 0.00 0.00 0.00 81 1011.4
20260506201943 47 0 0.0 0.0 0.00 0.00 0.00 81 1011.3
20260506201443 47 0 0.0 0.0 0.00 0.00 0.00 80 1011.2
20260506200943 47 0 0.0 0.0 0.00 0.00 0.00 80 1011.0
20260506200442 47 0 0.0 0.0 0.00 0.00 0.00 80 1011.0
20260506195942 47 0 0.0 0.0 0.00 0.00 0.00 80 1011.0
20260506195442 47 0 0.0 0.0 0.00 0.00 0.00 80 1010.9
20260506194942 47 0 0.0 0.0 0.00 0.00 0.00 80 1010.9
20260506194441 47 0 0.0 0.0 0.00 0.00 0.00 80 1010.8
20260506193941 47 0 0.0 0.0 0.00 0.00 0.00 80 1010.8
20260506193441 47 0 0.0 0.0 0.00 0.00 0.00 79 1010.7
20260506192940 47 0 0.0 0.0 0.00 0.00 0.00 79 1010.9
20260506192440 47 0 0.0 0.0 0.00 0.00 0.00 79 1010.9
20260506191940 48 0 0.0 0.0 0.00 0.00 0.00 79 1010.9
20260506191440 48 0 0.0 0.0 0.00 0.00 0.00 79 1010.9
20260506190939 48 0 0.0 0.0 0.00 0.00 0.00 78 1010.8
20260506190439 48 0 0.0 0.0 0.00 0.00 0.00 78 1010.6
20260506185939 48 0 0.0 0.0 0.00 0.00 0.00 78 1010.6
20260506185438 48 0 0.0 0.0 0.00 0.00 0.00 78 1010.6
20260506184938 49 0 0.0 0.0 0.00 0.00 0.00 78 1010.7
20260506184438 49 0 0.0 0.0 0.00 0.00 0.00 78 1010.5
20260506183938 49 0 0.0 0.0 0.00 0.00 0.00 78 1010.4
20260506183437 49 0 0.0 0.0 0.00 0.00 0.00 78 1010.3
20260506182937 49 0 0.0 0.0 0.00 0.00 0.00 78 1010.3
20260506182437 50 0 0.0 0.0 0.00 0.00 0.00 78 1010.3
20260506181936 50 0 0.0 0.0 0.00 0.00 0.00 78 1010.2
20260506181436 50 0 0.0 0.0 0.00 0.00 0.00 78 1010.3
20260506180936 49 0 0.0 0.0 0.00 0.00 0.00 78 1010.3
20260506180436 49 0 0.0 0.0 0.00 0.00 0.00 78 1010.4
20260506175935 49 0 0.0 0.0 0.00 0.00 0.00 78 1010.3
20260506175435 49 0 0.0 0.0 0.00 0.00 0.00 78 1010.2
20260506174935 49 0 0.0 0.0 0.00 0.00 0.00 78 1010.0
20260506174435 49 0 0.0 0.0 0.00 0.00 0.00 78 1009.9
20260506173934 49 0 0.0 0.0 0.00 0.00 0.00 78 1009.8
20260506173434 49 0 0.0 0.0 0.00 0.00 0.00 77 1009.8
20260506172934 49 0 0.0 0.0 0.00 0.00 0.00 77 1009.7
20260506172433 49 0 0.0 0.0 0.00 0.00 0.00 76 1009.7
20260506171933 50 0 0.0 0.0 0.00 0.00 0.00 76 1009.7
20260506171433 50 0 0.0 0.0 0.00 0.00 0.00 75 1009.7
20260506170933 50 0 0.0 0.0 0.00 0.00 0.00 74 1009.7
20260506170432 50 0 0.0 0.0 0.00 0.00 0.00 74 1009.5
20260506165932 50 0 0.0 0.0 0.00 0.00 0.00 75 1009.3
20260506165432 50 0 0.0 0.0 0.00 0.00 0.00 75 1009.3
20260506164931 49 0 0.0 0.0 0.00 0.00 0.00 76 1009.0
20260506164431 49 0 0.0 0.0 0.00 0.00 0.00 76 1009.0
20260506163931 49 0 0.0 0.0 0.00 0.00 0.00 76 1009.0
20260506163431 49 0 0.0 0.0 0.00 0.00 0.00 76 1009.1
20260506162930 50 0 0.0 0.0 0.00 0.00 0.00 75 1009.1
20260506162430 50 0 0.0 0.0 0.00 0.00 0.00 74 1009.1
20260506161930 51 0 0.0 0.0 0.00 0.00 0.00 73 1009.2
20260506161429 51 0 0.0 0.0 0.00 0.00 0.00 72 1009.2
20260506160929 52 0 0.0 0.0 0.00 0.00 0.00 70 1009.0
20260506160429 53 0 0.0 0.0 0.00 0.00 0.00 69 1009.1
20260506155929 53 0 0.0 0.0 0.00 0.00 0.00 68 1009.0
20260506155428 53 0 0.0 0.0 0.00 0.00 0.00 67 1008.9
20260506154928 54 0 0.0 0.0 0.00 0.00 0.00 65 1008.6
20260506154428 55 0 0.0 0.0 0.00 0.00 0.00 62 1008.5
20260506153927 58 0 0.0 0.0 0.00 0.00 0.00 59 1008.5
20260506153427 60 0 0.0 0.0 0.00 0.00 0.00 57 1008.5
20260506152927 61 0 0.0 0.0 0.00 0.00 0.00 55 1008.3
20260506152427 65 0 0.0 0.0 0.00 0.00 0.00 53 1008.4
20260506151926 69 0 0.0 0.0 0.00 0.00 0.00 54 1007.6
20260506151426 71 0 0.0 0.0 0.00 0.00 0.00 53 1007.5
20260506150926 71 0 0.0 0.0 0.00 0.00 0.00 51 1007.4
20260506150425 75 0 0.0 0.0 0.00 0.00 0.00 46 1007.3
20260506145925 79 0 0.0 0.0 0.00 0.00 0.00 46 1007.3
20260506145425 80 0 0.0 0.0 0.00 0.00 0.00 48 1007.4
20260506144925 77 0 0.0 0.0 0.00 0.00 0.00 52 1007.4
20260506144424 73 0 0.0 0.0 0.00 0.00 0.00 58 1007.2
20260506143924 69 0 0.0 0.0 0.00 0.00 0.00 62 1007.3
20260506143424 66 0 0.0 0.0 0.00 0.00 0.00 62 1007.5
20260506142924 66 0 0.0 0.0 0.00 0.00 0.00 62 1007.5
20260506142423 66 0 0.0 0.0 0.00 0.00 0.00 62 1007.3
20260506141923 67 0 0.0 0.0 0.00 0.00 0.00 63 1007.3
20260506141423 66 0 0.0 0.0 0.00 0.00 0.00 62 1007.3
20260506140922 66 0 0.0 0.0 0.00 0.00 0.00 64 1007.2
20260506140422 66 0 0.0 0.0 0.00 0.00 0.00 69 1007.2
20260506135922 63 0 0.0 0.0 0.00 0.00 0.00 73 1007.3
20260506135421 62 0 0.0 0.0 0.00 0.00 0.00 72 1007.4
20260506134922 61 0 0.0 0.0 0.00 0.00 0.00 77 1007.6
20260506134421 58 0 0.0 0.0 0.00 0.00 0.00 82 1007.6
20260506133921 55 0 0.0 0.0 0.00 0.00 0.00 82 1007.5
20260506133420 54 0 0.0 0.0 0.00 0.00 0.00 82 1007.4
20260506132920 52 0 0.0 0.0 0.00 0.00 0.00 80 1007.6
20260506132420 52 0 0.0 0.0 0.00 0.00 0.00 78 1008.0
20260506131920 52 0 0.0 0.0 0.00 0.00 0.00 76 1008.1
20260506131419 53 0 0.0 0.0 0.00 0.00 0.00 75 1008.1
20260506130919 55 0 0.0 0.0 0.00 0.00 0.00 73 1008.2
20260506130419 57 0 0.0 0.0 0.00 0.00 0.00 67 1008.1
20260506125918 59 0 0.0 0.0 0.00 0.00 0.00 62 1008.0
20260506125418 60 0 0.0 0.0 0.00 0.00 0.00 58 1007.5
20260506124918 61 0 0.0 0.0 0.00 0.00 0.00 55 1007.0
20260506124418 62 0 0.0 0.0 0.00 0.00 0.00 54 1006.5
20260506123917 63 0 0.0 0.0 0.00 0.00 0.00 53 1006.5
20260506123417 64 0 0.0 0.0 0.00 0.00 0.00 53 1006.3
20260506122917 65 0 0.0 0.0 0.00 0.00 0.00 51 1006.1
20260506122416 66 0 0.0 0.0 0.00 0.00 0.00 51 1006.1
20260506121916 66 0 0.0 0.0 0.00 0.00 0.00 51 1006.3
20260506121416 66 0 0.0 0.0 0.00 0.00 0.00 50 1006.4
20260506120916 66 0 0.0 0.0 0.00 0.00 0.00 50 1006.6
20260506120415 66 0 0.0 0.0 0.00 0.00 0.00 49 1006.7